Regional Weather Roundup
Issued by NWS

Home | Current Version | Previous Version | Graphics & Text | Print | Product List | Glossary On
Versions: 1 2 3 4 5 6 7 8 9 10 11 12 13 14 15 16 17 18 19 20 21 22 23 24 25 26 27 28 29 30 31 32 33 34 35 36 37 38 39 40 41 42 43 44 45 46 47 48 49 50
503
ASUS44 KJAN 190603
RWRMS

MISSISSIPPI HOURLY WEATHER ROUNDUP
NATIONAL WEATHER SERVICE JACKSON MS
100 AM CDT SUN APR 19 2015

NOTE: "FAIR: INDICATES FEW OR NO CLOUDS BELOW 12,000 FEET WITH NO
SIGNIFICANT WEATHER AND/OR OBSTRUCTIONS TO VISIBILITY.

MSZ001>002-007>008-010>013-018>021-025>028-034>036-190700-
NORTHWEST MISSISSIPPI

CITY           SKY/WX    TMP DP  RH WIND       PRES   REMARKS
CLARKSDALE     CLOUDY    64  64 100 E6        29.77F
CLEVELAND      LGT RAIN  66  66 100 SE8       29.74F
GREENWOOD      LGT RAIN  67  64  90 S7        29.76F
6HR MIN TEMP:  66; 6HR MAX TEMP:  69; 6HR PCP:  0.15;

GREENVILLE     CLOUDY    68  66  93 S9        29.74F
6HR MIN TEMP:  67; 6HR MAX TEMP:  68; 6HR PCP:  0.05;

OLIVE BRANCH   MOCLDY    63  63 100 SE8       29.77F
OXFORD         MOCLDY    63  61  94 SE6       29.79F FOG
TUNICA         CLOUDY    64  63  94 CALM      29.77F
$$

MSZ003>006-009-014>017-022>024-029>033-037>039-190700-
NORTHEAST MISSISSIPPI

CITY           SKY/WX    TMP DP  RH WIND       PRES   REMARKS
COLUMBUS AFB   LGT RAIN  65  65 100 SE3       29.78F
6HR MIN TEMP:  65; 6HR MAX TEMP:  67; 6HR PCP:  0.24;

CORINTH        LGT RAIN  66  63  88 SE5       29.78F
GOLDN TRIANGLE CLOUDY    66  63  88 SE6       29.78F
STARKVILLE     RAIN      64  63  94 SE5       29.77F
TUPELO         RAIN      65  62  90 S5        29.78F FOG
6HR MIN TEMP:  65; 6HR MAX TEMP:  68; 6HR PCP:  0.07;

$$

MSZ040-058-190700-
CENTRAL MISSISSIPPI

CITY           SKY/WX    TMP DP  RH WIND       PRES   REMARKS
JACKSON INTL   RAIN      67  66  97 SW6       29.78S
6HR MIN TEMP:  67; 6HR MAX TEMP:  70; 6HR PCP:  0.80;

JACKSON HAWKNS RAIN      67  66  97 S5        29.78S FOG
6HR MIN TEMP:  67; 6HR MAX TEMP:  69; 6HR PCP:  1.62;

MERIDIAN KEY   CLOUDY    69  67  93 S13       29.77F
6HR MIN TEMP:  67; 6HR MAX TEMP:  69; 6HR PCP:  0.42;

MERIDIAN NAS   CLOUDY    68  66  93 SE3       29.78F
6HR MIN TEMP:  67; 6HR MAX TEMP:  68; 6HR PCP:  0.32;

RAYMOND        DRIZZLE   66  61  82 S6        29.78R
VICKSBURG      MOCLDY    67  65  93 S5        29.77F
6HR MIN TEMP:  67; 6HR MAX TEMP:  70; 6HR PCP:  0.78;

$$

MSZ059>079-190700-
SOUTH MISSISSIPPI

CITY           SKY/WX    TMP DP  RH WIND       PRES   REMARKS
BROOKHAVEN     CLOUDY    70  70 100 S6        29.80F
HATTIESBURG    CLOUDY    71  68  90 S7        29.81S
6HR MIN TEMP:  71; 6HR MAX TEMP:  74; 6HR PCP:  0.02;

MCCOMB         CLOUDY    70  69  97 S7        29.79F
6HR MIN TEMP:  70; 6HR MAX TEMP:  74; 6HR PCP:  0.02;

NATCHEZ        FAIR      66  64  94 S6        29.76F
6HR MIN TEMP:  66; 6HR MAX TEMP:  72; 6HR PCP:  1.08;

PINE BELT      MOCLDY    70  66  88 S5        29.81S
6HR MIN TEMP:  70; 6HR MAX TEMP:  72;

$$

MSZ080>082-190700-
COASTAL MISSISSIPPI

CITY           SKY/WX    TMP DP  RH WIND       PRES   REMARKS
BILOXI         FAIR      73  71  92 S7        29.79S
6HR MIN TEMP:  71; 6HR MAX TEMP:  74; 6HR PCP:  0.13;

PASCAGOULA     MOCLDY    70  67  90 S5        29.79F
6HR MIN TEMP:  70; 6HR MAX TEMP:  73; 6HR PCP: TRACE;

GULFPORT       FAIR      73  69  87 S10       29.79S
6HR MIN TEMP:  71; 6HR MAX TEMP:  73; 6HR PCP:  0.16;

$$



USA.gov is the U.S. government's official web portal to all federal, state and local government web resources and services.